Huntsville Madison, AL

4:58 AM CST on February 24, 2018 (GMT -0600)
Huntsville Madison

Weather History for KMDQ - January, 2014

Change the Weather History Date:

Saturday, January 25, 2014

  Actual Average (KHSV) Record (KHSV)
Temperature  
Mean Temperature 33 °F -  
Max Temperature 42 °F 51 °F 77 °F (1950)
Min Temperature 24 °F 31 °F 4 °F (1940)
Degree Days  
Heating Degree Days 32    
Moisture  
Dew Point 6 °F    
Average Humidity 32    
Maximum Humidity 55    
Minimum Humidity 23    
Precipitation  
Precipitation 0.00 in - - ()
Sea Level Pressure  
Sea Level Pressure 29.98 in    
Wind  
Wind Speed 11 mph (SW)    
Max Wind Speed 17 mph    
Max Gust Speed 25 mph    
Visibility 10 miles    
Events      
Averages and records for this station are not official NWS values.
T = Trace of Precipitation, MM = Missing Value Source: NWS Daily Summary

Daily Weather History Graph

Daily Weather History Graph

Search for Another Location

Airport or City:

Trip Planner

Search our weather history database for the weather conditions in past years. The results will help you decide how hot, cold, wet, or windy it might be!

Date:

Astronomy

Jan. 25, 2014 Rise Set
Actual Time 6:49 AM CST 5:08 PM CST
Civil Twilight 6:22 AM CST 5:35 PM CST
Nautical Twilight 5:51 AM CST 6:05 PM CST
Astronomical Twilight 5:21 AM CST 6:35 PM CST
Moon 1:21 AM CST (1/25) 12:07 PM CST (1/25)
Length of Visible Light 11h 12m
Length of Day
10h 18m
Waning Crescent, 34% of the Moon is Illuminated
Jan 25
Waning Crescent
Jan 30
New
Feb 6
First Quarter
Feb 14
Full
Feb 22
Last Quarter

Hourly Weather History & Observations

Time (CST) Temp. Windchill Dew Point Humidity Pressure Visibility Wind Dir Wind Speed Gust Speed Precip Events Conditions
12:15 AM 24.8 °F 16.1 °F -7.6 °F 24% 30.17 in 10.0 mi South 8.1 mph - N/A   Clear
12:35 AM 24.8 °F 15.3 °F -7.6 °F 24% 30.16 in 10.0 mi South 9.2 mph - N/A   Clear
12:55 AM 24.8 °F 16.1 °F -7.6 °F 24% 30.15 in 10.0 mi South 8.1 mph - N/A   Clear
1:15 AM 24.8 °F 15.3 °F -5.8 °F 26% 30.14 in 10.0 mi South 9.2 mph - N/A   Clear
1:35 AM 24.8 °F 14.6 °F -5.8 °F 26% 30.13 in 10.0 mi South 10.4 mph - N/A   Clear
1:55 AM 26.6 °F 16.2 °F -5.8 °F 24% 30.12 in 10.0 mi South 11.5 mph 17.3 mph N/A   Clear
2:15 AM 26.6 °F 16.2 °F -4.0 °F 26% 30.12 in 10.0 mi SSW 11.5 mph - N/A   Clear
2:35 AM 26.6 °F 16.2 °F -5.8 °F 24% 30.11 in 10.0 mi SSW 11.5 mph 17.3 mph N/A   Clear
2:55 AM 26.6 °F 16.2 °F -5.8 °F 24% 30.10 in 10.0 mi SSW 11.5 mph - N/A   Clear
3:15 AM 26.6 °F 15.7 °F -4.0 °F 26% 30.08 in 10.0 mi SSW 12.7 mph 17.3 mph N/A   Mostly Cloudy
3:35 AM 26.6 °F 16.8 °F -4.0 °F 26% 30.07 in 10.0 mi SSW 10.4 mph - N/A   Overcast
3:55 AM 26.6 °F 16.2 °F -4.0 °F 26% 30.07 in 10.0 mi SSW 11.5 mph - N/A   Overcast
4:15 AM 26.6 °F 15.7 °F -4.0 °F 26% 30.05 in 10.0 mi SSW 12.7 mph - N/A   Overcast
4:35 AM 28.4 °F 19.1 °F -2.2 °F 27% 30.05 in 10.0 mi SSW 10.4 mph - N/A   Overcast
4:55 AM 28.4 °F 17.5 °F -4.0 °F 25% 30.02 in 10.0 mi SSW 13.8 mph 19.6 mph N/A   Overcast
5:15 AM 28.4 °F 17.5 °F -4.0 °F 25% 30.02 in 10.0 mi SSW 13.8 mph 20.7 mph N/A   Overcast
5:35 AM 28.4 °F 16.6 °F -4.0 °F 25% 30.00 in 10.0 mi SSW 16.1 mph 20.7 mph N/A   Overcast
5:55 AM 28.4 °F 17.5 °F -4.0 °F 25% 30.00 in 10.0 mi SSW 13.8 mph 19.6 mph N/A   Mostly Cloudy
6:15 AM 28.4 °F 17.0 °F -2.2 °F 27% 29.98 in 10.0 mi SSW 15.0 mph 20.7 mph N/A   Scattered Clouds
6:35 AM 28.4 °F 17.5 °F -2.2 °F 27% 29.98 in 10.0 mi SSW 13.8 mph 19.6 mph N/A   Scattered Clouds
6:55 AM 28.4 °F 17.0 °F -2.2 °F 27% 29.98 in 10.0 mi SSW 15.0 mph 19.6 mph N/A   Scattered Clouds
7:15 AM 28.4 °F 16.2 °F -2.2 °F 27% 29.97 in 10.0 mi SSW 17.3 mph 21.9 mph N/A   Mostly Cloudy
7:35 AM 28.4 °F 18.0 °F -2.2 °F 27% 29.96 in 10.0 mi SSW 12.7 mph 25.3 mph N/A   Overcast
7:55 AM 28.4 °F 17.0 °F -0.4 °F 29% 29.95 in 10.0 mi SSW 15.0 mph 21.9 mph N/A   Mostly Cloudy
8:15 AM 30.2 °F 18.9 °F 1.4 °F 29% 29.92 in 10.0 mi SSW 16.1 mph 23.0 mph N/A   Mostly Cloudy
8:35 AM 30.2 °F 18.5 °F 1.4 °F 29% 29.94 in 10.0 mi SW 17.3 mph 20.7 mph N/A   Mostly Cloudy
8:55 AM 30.2 °F 20.2 °F 1.4 °F 29% 29.94 in 10.0 mi SSW 12.7 mph 19.6 mph N/A   Overcast
9:15 AM 30.2 °F 19.3 °F 1.4 °F 29% 29.95 in 10.0 mi SW 15.0 mph - N/A   Overcast
9:35 AM 32.0 °F 24.2 °F 3.2 °F 30% 29.95 in 10.0 mi SW 9.2 mph - N/A   Mostly Cloudy
9:55 AM 32.0 °F 23.0 °F 3.2 °F 30% 29.96 in 10.0 mi SW 11.5 mph - N/A   Overcast
10:15 AM 32.0 °F 23.0 °F 3.2 °F 30% 29.96 in 10.0 mi SW 11.5 mph 19.6 mph N/A   Overcast
10:35 AM 32.0 °F 22.1 °F 5.0 °F 32% 29.95 in 10.0 mi SW 13.8 mph - N/A   Mostly Cloudy
10:55 AM 33.8 °F 24.8 °F 5.0 °F 30% 29.95 in 10.0 mi WSW 12.7 mph - N/A   Scattered Clouds
11:15 AM 35.6 °F 27.1 °F 3.2 °F 26% 29.93 in 10.0 mi West 12.7 mph 20.7 mph N/A   Clear
11:35 AM 37.4 °F 28.2 °F 5.0 °F 26% 29.93 in 10.0 mi WSW 16.1 mph - N/A   Clear
11:55 AM 39.2 °F 33.0 °F 5.0 °F 24% 29.92 in 10.0 mi WSW 9.2 mph - N/A   Mostly Cloudy
12:15 PM 41.0 °F 33.9 °F 5.0 °F 23% 29.91 in 10.0 mi West 12.7 mph 17.3 mph N/A   Overcast
12:35 PM 39.2 °F 31.6 °F 6.8 °F 26% 29.90 in 10.0 mi WSW 12.7 mph - N/A   Overcast
12:55 PM 41.0 °F 33.9 °F 6.8 °F 24% 29.89 in 10.0 mi West 12.7 mph 17.3 mph N/A   Overcast
1:15 PM 41.0 °F 33.9 °F 8.6 °F 26% 29.89 in 10.0 mi WSW 12.7 mph 16.1 mph N/A   Overcast
1:35 PM 41.0 °F 35.2 °F 8.6 °F 26% 29.89 in 10.0 mi WSW 9.2 mph - N/A   Scattered Clouds
1:55 PM 42.8 °F 35.8 °F 8.6 °F 25% 29.90 in 10.0 mi West 13.8 mph 17.3 mph N/A   Clear
2:15 PM 42.8 °F 36.6 °F 10.4 °F 27% 29.90 in 10.0 mi West 11.5 mph 17.3 mph N/A   Mostly Cloudy
2:35 PM 41.0 °F 35.8 °F 10.4 °F 29% 29.90 in 10.0 mi West 8.1 mph - N/A   Mostly Cloudy
2:55 PM 41.0 °F 34.3 °F 10.4 °F 29% 29.90 in 10.0 mi WSW 11.5 mph 16.1 mph N/A   Clear
3:15 PM 42.8 °F 37.0 °F 10.4 °F 27% 29.90 in 10.0 mi WSW 10.4 mph - N/A   Clear
3:35 PM 42.8 °F 36.6 °F 10.4 °F 27% 29.91 in 10.0 mi SW 11.5 mph - N/A   Clear
3:55 PM 41.0 °F 34.7 °F 10.4 °F 29% 29.92 in 10.0 mi WSW 10.4 mph - N/A   Clear
4:15 PM 41.0 °F 36.4 °F 12.2 °F 31% 29.92 in 10.0 mi SW 6.9 mph - N/A   Clear
4:35 PM 41.0 °F 35.8 °F 12.2 °F 31% 29.92 in 10.0 mi WSW 8.1 mph - N/A   Clear
4:55 PM 37.4 °F 32.8 °F 14.0 °F 38% 29.92 in 10.0 mi SW 5.8 mph - N/A   Clear
5:15 PM 37.4 °F 32.1 °F 14.0 °F 38% 29.93 in 10.0 mi SW 6.9 mph - N/A   Clear
5:35 PM 35.6 °F 29.2 °F 14.0 °F 41% 29.94 in 10.0 mi SW 8.1 mph - N/A   Clear
5:55 PM 35.6 °F 29.2 °F 15.8 °F 44% 29.94 in 10.0 mi SSW 8.1 mph - N/A   Clear
6:15 PM 35.6 °F 29.9 °F 15.8 °F 44% 29.94 in 10.0 mi SSW 6.9 mph - N/A   Clear
6:35 PM 35.6 °F 30.7 °F 15.8 °F 44% 29.95 in 10.0 mi SSW 5.8 mph - N/A   Clear
6:55 PM 35.6 °F 30.7 °F 15.8 °F 44% 29.96 in 10.0 mi SSW 5.8 mph - N/A   Clear
7:15 PM 35.6 °F - 17.6 °F 48% 29.96 in 10.0 mi Calm Calm - N/A   Clear
7:35 PM 32.0 °F 25.6 °F 17.6 °F 55% 29.97 in 10.0 mi WSW 6.9 mph - N/A   Clear
7:55 PM 35.6 °F 29.2 °F 17.6 °F 48% 29.97 in 10.0 mi WSW 8.1 mph - N/A   Clear
8:15 PM 35.6 °F 29.9 °F 17.6 °F 48% 29.97 in 10.0 mi WSW 6.9 mph - N/A   Clear
9:15 PM 37.4 °F - 17.6 °F 45% 29.97 in 10.0 mi Calm Calm - N/A   Clear
9:35 PM 37.4 °F 30.8 °F 17.6 °F 45% 29.97 in 10.0 mi WSW 9.2 mph - N/A   Clear
9:55 PM 37.4 °F 30.8 °F 17.6 °F 45% 29.98 in 10.0 mi WSW 9.2 mph - N/A   Clear
10:15 PM 35.6 °F 29.9 °F 17.6 °F 48% 29.98 in 10.0 mi West 6.9 mph - N/A   Clear
10:35 PM 37.4 °F 30.8 °F 17.6 °F 45% 29.98 in 10.0 mi West 9.2 mph - N/A   Clear
10:55 PM 33.8 °F 28.6 °F 17.6 °F 52% 29.98 in 10.0 mi West 5.8 mph - N/A   Clear
11:15 PM 35.6 °F 29.9 °F 17.6 °F 48% 29.98 in 10.0 mi West 6.9 mph - N/A   Clear
11:35 PM 35.6 °F 30.7 °F 17.6 °F 48% 29.98 in 10.0 mi West 5.8 mph - N/A   Clear
11:55 PM 33.8 °F 30.8 °F 17.6 °F 52% 29.98 in 10.0 mi WNW 3.5 mph - N/A   Clear